カタログに戻る

SCOUT A DEB

運用中PO
NORAD 3214·DEBRIS·🇺🇸 United States

打ち上げ Mar 2, 1968 から Vandenberg Space Force Base

Loading…

次のパス (今後24時間)

TLE

最新Source: Space-Track

元期: Sep 13, 2026, 00:35 UTC

1 03214U 68012D   26256.02469916  .00000109  00000-0  19541-3 0  9998
2 03214  89.8061 101.9333 0186487  13.3844 139.8410 13.29300290596208

AllMySatでSCOUT A DEBをリアルタイム追跡

Download on the App Store